Regional Weather Roundup
Issued by NWS

Home | Current Version | Previous Version | Graphics & Text | Print | Product List | Glossary On
Versions: 1 2 3 4 5 6 7 8 9 10 11 12 13 14 15 16 17 18 19 20 21 22 23 24 25 26 27 28 29 30 31 32 33 34 35 36 37 38 39 40 41 42 43 44 45 46 47 48 49 50
000
ASUS44 KFWD 031115
RWRTX
NORTH TEXAS HOURLY WEATHER ROUNDUP
NATIONAL WEATHER SERVICE FORT WORTH TX
600 AM CDT WED JUN 03 2015

NOTE: "FAIR" INDICATES FEW OR NO CLOUDS BELOW 12,000 FEET WITH NO
SIGNIFICANT WEATHER AND/OR OBSTRUCTIONS TO VISIBILITY.

TXZ118-119-031200-
DALLAS/FORT WORTH METROPLEX

CITY           SKY/WX    TMP DP  RH WIND       PRES   REMARKS
DFW AIRPORT    PTCLDY    68  63  84 SE5       29.91R
DALLAS LOVE    PTCLDY    74  64  71 S8        29.92R
FTW MEACHAM    CLEAR     71  63  75 SE8       29.91S
DAL-EXECUTIVE  CLEAR     69  65  86 VRB5      29.92S
FTW-ALLIANCE   PTCLDY    69  63  81 S5        29.91S
FTW-NAS-JRB    CLEAR     73  62  68 S6        29.91S
FTW-SPINKS     CLEAR     69  62  79 CALM      29.93S
ARLINGTON      CLEAR     69  63  81 CALM      29.92S
GRAND PRAIRIE  CLEAR     71  64  78 SE6       29.93S
ADDISON        CLEAR     72  64  78 SE9       29.94R
MESQUITE       CLEAR     68  65  92 SE5       29.94R
LANCASTER      CLEAR     65  63  91 CALM      29.94R
$$

TXZ091>094-102>105-117-120-121-131>134-031200-
NORTH CENTRAL TEXAS

CITY           SKY/WX    TMP DP  RH WIND       PRES   REMARKS
SHRMAN/DENISON CLEAR     70  65  84 SE8       29.94R
GAINESVILLE    CLEAR     65  64  94 SE5       29.94S
BOWIE          CLEAR     65  64  99 SE5       29.91S
BRIDGEPORT     CLEAR     70  64  82 S5        29.93S
DECATUR        CLEAR     67  60  79 SE7       29.92S
DENTON         CLEAR     68  64  87 SE3       29.91S
MCKINNEY       CLEAR     69  64  84 CALM      29.93R
GREENVILLE     CLEAR     66  63  88 SE5       29.94S
ROCKWALL       CLEAR     69  64  84 SE8       29.92S
TERRELL          N/A    N/A N/A N/A MISG      29.94R
WAXAHACHIE     CLEAR     67  65  93 CALM      29.94S
CLEBURNE       CLEAR     68  66  94 SE5       29.94R
GRANBURY       CLEAR     71  64  80 SE7       29.92S
$$

TXZ083>090-098>101-113>116-127>130-139>142-154-155-031200-
WESTERN NORTH TEXAS

CITY           SKY/WX    TMP DP  RH WIND       PRES   REMARKS
WICHITA FALLS  CLEAR     69  65  86 S12       29.88R
WF-KICKAPOO    CLEAR     70  66  85 SE7       29.90S
VERNON         CLEAR     69  61  76 S5        29.88S
ABILENE        CLEAR     70  61  73 S10       29.90F
ABILENE-DYESS  CLEAR     69  60  73 S5        29.89S
BRECKENRIDGE   CLEAR     69  64  82 SE6       29.90R
GRAHAM         CLEAR     68  66  94 SE5       29.89R
MINERAL WELLS  CLEAR     68  65  90 SE8       29.90R
STEPHENVILLE   CLEAR     66  63  90 CALM      29.95R
COMANCHE       CLEAR     68  65  89 S5        29.92S
BROWNWOOD      CLEAR     66  64  94 SE5       29.93R
COLEMAN        CLEAR     65  64  94 S5        29.93S
BRADY          CLEAR     64  64 100 S5        29.93S
$$

TXZ143>147-156>162-174-175-031200-
CENTRAL TEXAS

CITY           SKY/WX    TMP DP  RH WIND       PRES   REMARKS
WACO           CLEAR     69  64  84 SE7       29.92R
WACO-MCGREGOR  CLEAR     66  63  88 S5        29.93S
HILLSBORO      CLEAR     69  61  76 SE7       29.93R
CORSICANA      CLEAR     70  65  84 SE6       29.94S
MEXIA          CLEAR     67  64  89 SE12      29.93R
HEARNE         CLEAR     67  65  93 CALM      29.94S
CAMERON        CLEAR     69  67  94 CALM      29.92S
TEMPLE         CLEAR     66  61  82 SE6       29.92R
KILLEEN        CLEAR     70  65  83 SW6       29.92R
KILLEEN-SKYLRK CLEAR     68  61  77 SE3       29.93R
FORT HOOD      CLEAR     69  64  85 S3        29.92R
GATESVILLE     CLEAR     68  64  88 CALM      29.95R
HAMILTON       CLEAR     66  66 100 S7        29.94S
LAMPASAS       CLEAR     65  64  95 CALM      29.93R
$$

TXZ095>097-106>112-122>126-135>138-148>153-164>167-031200-
EAST TEXAS

CITY           SKY/WX    TMP DP  RH WIND       PRES   REMARKS
PARIS          CLEAR     64  61  88 E7        29.96R
SULPHUR SPRNGS CLEAR     68  63  84 SE5       29.96S
MOUNT PLEASANT CLEAR     65  64  95 E3        29.97R
GILMER         CLEAR    N/A N/A N/A CALM      29.96R
MINEOLA        CLEAR     64  64 100 CALM      29.96S FOG
TYLER          CLEAR     67  62  84 SE7       29.95R
LONGVIEW       CLEAR     65  63  93 CALM      29.95R
MARSHALL       CLEAR     68  66  93 CALM      29.99R
ATHENS         CLEAR     64  63  94 CALM      29.93R
PALESTINE      CLEAR     68  64  86 CALM      29.96R
JACKSONVILLE   CLEAR     70  62  76 SE5       29.97R
HENDERSON      CLEAR     63  62  99 MISG      29.97R
NACOGDOCHES    CLEAR     63  61  94 CALM      29.95R
LUFKIN         CLEAR     69  64  84 CALM      29.94S
$$

SUPPLEMENTAL OBSERVATIONS (CENTRAL)

CITY           SKY/WX    TMP DP  RH WIND       PRES   REMARKS
LAKE TEXOMA      N/A     68  64  88 E3          N/A
CADDO GRASSLND   N/A     68  63  83 S5          N/A
PAT MAYSE LAKE   N/A     66  64  94 E5          N/A
GREENVILLE       N/A     66  61  82 SE2         N/A
CEDAR HILL       N/A     70  63  78 SE6         N/A
ATHENS           N/A     70  63  78 SE3         N/A
LAKE LIMESTONE   N/A     66  63  88 E2          N/A
MCGREGOR         N/A     70  66  88 S3          N/A
TEMPLE           N/A     68  63  83 SE1         N/A
$$

SUPPLEMENTAL OBSERVATIONS (WEST)

CITY           SKY/WX    TMP DP  RH WIND       PRES   REMARKS
MILLERS CREEK    N/A     70  64  83 S10         N/A
POSSUM KINGDOM   N/A     68  63  83 SE5         N/A
LBJ GRASSLAND    N/A     70  63  78 SE7         N/A
GRANBURY         N/A     70  63  78 SE6         N/A
COMANCHE         N/A     68  63  83 S6          N/A
HAMBY            N/A     68  61  77 S6          N/A
IVIE RESERVOIR   N/A     66  61  82 SE6         N/A
COLORADO BEND    N/A     66  61  82 S3          N/A
$$

SUPPLEMENTAL OBSERVATIONS (EAST)

CITY           SKY/WX    TMP DP  RH WIND       PRES   REMARKS
CLARKSVILLE      N/A     66  64  94 SE2         N/A
TEXARKANA        N/A    N/A N/A N/A CALM        N/A
LINDEN           N/A     64  63  94 CALM        N/A
CADDO LAKE       N/A     61  59  94 CALM        N/A
GILMER           N/A     64  63  94 CALM        N/A
HENDERSON        N/A     64  59  82 CALM        N/A
LUFKIN           N/A     64  61  88 MISG        N/A
N SABINE NF      N/A    N/A N/A N/A MISG        N/A
S SABINE NF      N/A     64  61  88 CALM        N/A
$$

SUPPLEMENTAL OBSERVATIONS ARE A COLLECTION OF AUTOMATED INSTRUMENTS
THAT ARE MAINTAINED BY A VARIETY OF FEDERAL AND STATE AGENCIES.
CERTAIN ELEMENTS...SUCH AS HUMIDITY VALUES AND SUSTAINED WIND
SPEEDS...MAY BE APPROXIMATED.



USA.gov is the U.S. government's official web portal to all federal, state and local government web resources and services.